,,,PA_Meas_PMT16A,,PR_Meas_QMR101_102,,RH_Meas_QMH101,,SR_Meas_QMS101,,TA_Meas_QMH101,,GenWind,,GenWind,
date,time,status,PA,status,PR,status,RH,status,SR,status,TA,status,DirAvg,status,SpdAvg,
2011-04-03, 00:00:04,VALID,999.334,VALID,0,VALID,77.3949,VALID,0,VALID,26.9399,VALID,276,VALID,1.74297,
2011-04-03, 00:01:04,VALID,999.333,VALID,0,VALID,76.9905,VALID,0,VALID,26.9594,VALID,295,VALID,2.85117,
2011-04-03, 00:02:04,VALID,999.312,VALID,0,VALID,77.0668,VALID,0,VALID,26.9594,VALID,283,VALID,1.86563,
2011-04-03, 00:03:04,VALID,999.311,VALID,0,VALID,76.9142,VALID,0,VALID,26.9789,VALID,290,VALID,1.48594,
2011-04-03, 00:04:04,VALID,999.245,VALID,0,VALID,76.7311,VALID,0,VALID,26.9594,VALID,291,VALID,1.46523,
2011-04-03, 00:05:04,VALID,999.245,VALID,0,VALID,76.6929,VALID,0,VALID,26.9789,VALID,257,VALID,1.11719,
2011-04-03, 00:06:04,VALID,999.248,VALID,0,VALID,76.9447,VALID,0,VALID,26.9594,VALID,263,VALID,1.14883,
2011-04-03, 00:07:04,VALID,999.242,VALID,0,VALID,77.0973,VALID,0,VALID,26.9594,VALID,285,VALID,0.516016,
2011-04-03, 00:08:04,VALID,999.229,VALID,0,VALID,77.0058,VALID,0,VALID,26.9594,VALID,284,VALID,1.67813,
2011-04-03, 00:09:04,VALID,999.245,VALID,0,VALID,77.1507,VALID,0,VALID,26.9399,VALID,286,VALID,1.44961,
2011-04-03, 00:10:04,VALID,999.194,VALID,0,VALID,77.288,VALID,0,VALID,26.9399,VALID,282,VALID,2.15469,
2011-04-03, 00:11:04,VALID,999.171,VALID,0,VALID,77.1583,VALID,0,VALID,26.9789,VALID,272,VALID,2.3875,
2011-04-03, 00:12:04,VALID,999.118,VALID,0,VALID,77.2957,VALID,0,VALID,26.9985,VALID,283,VALID,0.891406,
2011-04-03, 00:13:04,VALID,999.124,VALID,0,VALID,77.6085,VALID,0,VALID,26.9574,VALID,271,VALID,0.601563,
2011-04-03, 00:14:04,VALID,999.019,VALID,0,VALID,77.578,VALID,0,VALID,26.9399,VALID,279,VALID,1.55664,
2011-04-03, 00:15:04,VALID,998.997,VALID,0,VALID,77.5704,VALID,0,VALID,26.9594,VALID,288,VALID,1.74531,
2011-04-03, 00:16:04,VALID,998.957,VALID,0,VALID,77.6238,VALID,0,VALID,26.9399,VALID,257,VALID,1.56797,
2011-04-03, 00:17:04,VALID,998.957,VALID,0,VALID,77.5322,VALID,0,VALID,26.9399,VALID,249,VALID,1.28789,
2011-04-03, 00:18:04,VALID,998.931,VALID,0,VALID,77.7001,VALID,0,VALID,26.9789,VALID,290,VALID,1.28594,
2011-04-03, 00:19:04,VALID,998.922,VALID,0,VALID,77.5551,VALID,0,VALID,26.9594,VALID,274,VALID,1.66836,
2011-04-03, 00:20:04,VALID,998.872,VALID,0,VALID,77.7382,VALID,0,VALID,26.9594,VALID,257,VALID,0.613281,
2011-04-03, 00:21:04,VALID,998.882,VALID,0,VALID,77.6695,VALID,0,VALID,26.9399,VALID,270,VALID,1.31445,
2011-04-03, 00:22:04,VALID,998.907,VALID,0,VALID,77.784,VALID,0,VALID,26.9399,VALID,268,VALID,1.68516,
2011-04-03, 00:23:04,VALID,998.889,VALID,0,VALID,77.7229,VALID,0,VALID,26.9399,VALID,276,VALID,1.06836,
2011-04-03, 00:24:04,VALID,998.854,VALID,0,VALID,77.5246,VALID,0,VALID,26.9399,VALID,287,VALID,1.97812,
2011-04-03, 00:25:04,VALID,998.845,VALID,0,VALID,77.5017,VALID,0,VALID,26.9594,VALID,268,VALID,1.75469,
2011-04-03, 00:26:04,VALID,998.834,VALID,0,VALID,77.2652,VALID,0,VALID,26.9985,VALID,255,VALID,1.98125,
2011-04-03, 00:27:04,VALID,998.866,VALID,0,VALID,77.3872,VALID,0,VALID,27.0005,VALID,278,VALID,1.66328,
2011-04-03, 00:28:04,VALID,998.795,VALID,0,VALID,77.1583,VALID,0,VALID,27.0005,VALID,262,VALID,1.89258,
2011-04-03, 00:29:04,VALID,998.812,VALID,0,VALID,77.166,VALID,0,VALID,27.0005,VALID,279,VALID,1.36367,
2011-04-03, 00:30:04,VALID,998.761,VALID,0,VALID,76.7692,VALID,0,VALID,27.018,VALID,277,VALID,2.27969,
2011-04-03, 00:31:04,VALID,998.841,VALID,0,VALID,76.6701,VALID,0,VALID,27.018,VALID,313,VALID,3.36797,
2011-04-03, 00:32:04,VALID,998.87,VALID,0,VALID,76.7463,VALID,0,VALID,27.018,VALID,298,VALID,1.43789,
2011-04-03, 00:33:04,VALID,998.849,VALID,0,VALID,76.9523,VALID,0,VALID,26.9985,VALID,307,VALID,0.821875,
2011-04-03, 00:34:04,VALID,998.785,VALID,0,VALID,76.5709,VALID,0,VALID,26.9985,VALID,273,VALID,2.50781,
2011-04-03, 00:35:04,VALID,998.849,VALID,0,VALID,76.5709,VALID,0,VALID,26.9985,VALID,289,VALID,2.74883,
2011-04-03, 00:36:04,VALID,998.804,VALID,0,VALID,76.2657,VALID,0,VALID,27.0375,VALID,255,VALID,2.25859,
2011-04-03, 00:37:04,VALID,998.823,VALID,0,VALID,76.6777,VALID,0,VALID,27.018,VALID,284,VALID,1.54961,
2011-04-03, 00:38:04,VALID,998.837,VALID,0,VALID,76.6548,VALID,0,VALID,26.9985,VALID,271,VALID,2.25586,
2011-04-03, 00:39:04,VALID,998.79,VALID,0,VALID,76.7692,VALID,0,VALID,26.9789,VALID,215,VALID,0.623438,
2011-04-03, 00:40:04,VALID,998.751,VALID,0,VALID,76.7311,VALID,0,VALID,26.9204,VALID,296,VALID,1.9625,
2011-04-03, 00:41:04,VALID,998.763,VALID,0,VALID,77.0821,VALID,0,VALID,26.9204,VALID,281,VALID,0.552344,
2011-04-03, 00:42:04,VALID,998.705,VALID,0,VALID,77.8679,VALID,0,VALID,26.8813,VALID,233,VALID,1.08164,
2011-04-03, 00:43:04,VALID,998.688,VALID,0,VALID,78.2265,VALID,0,VALID,26.8227,VALID,251,VALID,0.711719,
2011-04-03, 00:44:04,VALID,998.701,VALID,0,VALID,78.6919,VALID,0,VALID,26.7641,VALID,233,VALID,1.15625,
2011-04-03, 00:45:04,VALID,998.7,VALID,0,VALID,78.8369,VALID,0,VALID,26.6665,VALID,273,VALID,1.8668,
2011-04-03, 00:46:04,VALID,998.718,VALID,0,VALID,78.5469,VALID,0,VALID,26.6274,VALID,295,VALID,1.43164,
2011-04-03, 00:47:04,VALID,998.668,VALID,0,VALID,78.0892,VALID,0,VALID,26.686,VALID,324,VALID,1.5668,
2011-04-03, 00:48:04,VALID,998.577,VALID,0,VALID,75.8766,VALID,0,VALID,26.7836,VALID,316,VALID,3.23711,
2011-04-03, 00:49:04,VALID,998.597,VALID,0,VALID,74.7474,VALID,0,VALID,26.9008,VALID,288,VALID,2.90195,
2011-04-03, 00:50:04,VALID,998.524,VALID,0,VALID,74.3125,VALID,0,VALID,26.9594,VALID,282,VALID,2.00938,
2011-04-03, 00:51:04,VALID,998.55,VALID,0,VALID,73.3741,VALID,0.112286,VALID,27.0375,VALID,273,VALID,3.22578,
2011-04-03, 00:52:04,VALID,998.538,VALID,0,VALID,73.4732,VALID,0,VALID,27.1157,VALID,290,VALID,1.76211,
2011-04-03, 00:53:04,VALID,998.53,VALID,0,VALID,72.84,VALID,0,VALID,27.1352,VALID,289,VALID,3.57617,
2011-04-03, 00:54:04,VALID,998.534,VALID,0,VALID,72.7484,VALID,0,VALID,27.1743,VALID,277,VALID,2.95,
2011-04-03, 00:55:04,VALID,998.534,VALID,0,VALID,72.9239,VALID,0,VALID,27.1547,VALID,299,VALID,2.1082,
2011-04-03, 00:56:04,VALID,998.505,VALID,0,VALID,72.7713,VALID,0,VALID,27.1352,VALID,297,VALID,3.05039,
2011-04-03, 00:57:04,VALID,998.467,VALID,0,VALID,73.0002,VALID,0,VALID,27.1331,VALID,290,VALID,1.80352,
2011-04-03, 00:58:04,VALID,998.403,VALID,0,VALID,72.8781,VALID,0.112286,VALID,27.1352,VALID,316,VALID,2.83203,
2011-04-03, 00:59:04,VALID,998.432,VALID,0,VALID,72.8934,VALID,0,VALID,27.1352,VALID,302,VALID,1.11445,
2011-04-03, 01:00:04,VALID,998.44,VALID,0,VALID,72.8705,VALID,0,VALID,27.1547,VALID,287,VALID,2.25508,
2011-04-03, 01:01:04,VALID,998.437,VALID,0,VALID,72.3517,VALID,0,VALID,27.1938,VALID,291,VALID,2.30234,
2011-04-03, 01:02:04,VALID,998.36,VALID,0,VALID,72.3593,VALID,0,VALID,27.1938,VALID,276,VALID,1.87109,
2011-04-03, 01:03:04,VALID,998.376,VALID,0,VALID,72.4738,VALID,0,VALID,27.2133,VALID,279,VALID,2.48047,
2011-04-03, 01:04:04,VALID,998.376,VALID,0,VALID,72.4585,VALID,0,VALID,27.2133,VALID,267,VALID,3.23867,
2011-04-03, 01:05:04,VALID,998.391,VALID,0,VALID,72.9239,VALID,0,VALID,27.1938,VALID,278,VALID,1.9668,
2011-04-03, 01:06:04,VALID,998.381,VALID,0,VALID,73.2215,VALID,0,VALID,27.1547,VALID,237,VALID,1.42969,
2011-04-03, 01:07:04,VALID,998.404,VALID,0,VALID,73.4198,VALID,0,VALID,27.1938,VALID,288,VALID,2.19922,
2011-04-03, 01:08:04,VALID,998.445,VALID,0,VALID,73.7632,VALID,0,VALID,27.1743,VALID,302,VALID,2.51484,
2011-04-03, 01:09:04,VALID,998.455,VALID,0,VALID,73.664,VALID,0,VALID,27.1352,VALID,293,VALID,3.00625,
2011-04-03, 01:10:04,VALID,998.409,VALID,0,VALID,73.7021,VALID,0,VALID,27.1157,VALID,309,VALID,1.16406,
2011-04-03, 01:11:04,VALID,998.373,VALID,0,VALID,72.6798,VALID,0,VALID,27.1547,VALID,300,VALID,2.93125,
2011-04-03, 01:12:04,VALID,998.413,VALID,0,VALID,72.6645,VALID,0,VALID,27.1763,VALID,278,VALID,2.15742,
2011-04-03, 01:13:04,VALID,998.393,VALID,0,VALID,72.6874,VALID,0,VALID,27.2133,VALID,259,VALID,1.05625,
2011-04-03, 01:14:04,VALID,998.438,VALID,0,VALID,72.8781,VALID,0,VALID,27.1938,VALID,320,VALID,1.1,
2011-04-03, 01:15:04,VALID,998.434,VALID,0,VALID,72.1838,VALID,0,VALID,27.1136,VALID,313,VALID,2.05742,
2011-04-03, 01:16:04,VALID,998.509,VALID,0,VALID,72.7027,VALID,0,VALID,27.1547,VALID,314,VALID,2.18477,
2011-04-03, 01:17:04,VALID,998.479,VALID,0,VALID,72.8552,VALID,0,VALID,27.1352,VALID,302,VALID,2.0125,
2011-04-03, 01:18:04,VALID,998.481,VALID,0,VALID,72.5653,VALID,0,VALID,27.1527,VALID,264,VALID,2.91094,
2011-04-03, 01:19:04,VALID,998.47,VALID,0,VALID,72.3212,VALID,0,VALID,27.2329,VALID,298,VALID,4.62578,
2011-04-03, 01:20:04,VALID,998.443,VALID,0,VALID,72.1838,VALID,0,VALID,27.2915,VALID,290,VALID,2.39844,
2011-04-03, 01:21:04,VALID,998.392,VALID,0,VALID,72.4585,VALID,0,VALID,27.2915,VALID,311,VALID,2.86289,
2011-04-03, 01:22:04,VALID,998.428,VALID,0,VALID,72.9163,VALID,0,VALID,27.2719,VALID,268,VALID,2.56055,
2011-04-03, 01:23:04,VALID,998.397,VALID,0,VALID,73.2062,VALID,0,VALID,27.2524,VALID,256,VALID,3.13789,
2011-04-03, 01:24:04,VALID,998.381,VALID,0,VALID,73.6029,VALID,0,VALID,27.2133,VALID,306,VALID,1.04766,
2011-04-03, 01:25:04,VALID,998.396,VALID,0,VALID,73.9921,VALID,0,VALID,27.1352,VALID,288,VALID,1.15039,
2011-04-03, 01:26:04,VALID,998.325,VALID,0,VALID,73.8395,VALID,0,VALID,27.1157,VALID,297,VALID,2.92773,
2011-04-03, 01:27:04,VALID,998.368,VALID,0,VALID,73.9539,VALID,0,VALID,27.1547,VALID,278,VALID,2.56875,
2011-04-03, 01:28:04,VALID,998.327,VALID,0,VALID,73.0918,VALID,0,VALID,27.1938,VALID,263,VALID,3.85742,
2011-04-03, 01:29:04,VALID,998.329,VALID,0,VALID,73.3664,VALID,0,VALID,27.2329,VALID,306,VALID,2.1707,
2011-04-03, 01:30:04,VALID,998.313,VALID,0,VALID,73.3512,VALID,0.112286,VALID,27.2524,VALID,284,VALID,2.29063,
2011-04-03, 01:31:04,VALID,998.35,VALID,0,VALID,73.6869,VALID,0,VALID,27.2329,VALID,298,VALID,1.42578,
2011-04-03, 01:32:04,VALID,998.359,VALID,0,VALID,73.8624,VALID,0,VALID,27.2329,VALID,264,VALID,2.01563,
2011-04-03, 01:33:04,VALID,998.323,VALID,0,VALID,73.9615,VALID,0,VALID,27.2329,VALID,297,VALID,1.76836,
2011-04-03, 01:34:04,VALID,998.322,VALID,0,VALID,73.8395,VALID,0,VALID,27.2133,VALID,306,VALID,4.07109,
2011-04-03, 01:35:04,VALID,998.312,VALID,0,VALID,73.6411,VALID,0,VALID,27.2308,VALID,289,VALID,4.31563,
2011-04-03, 01:36:04,VALID,998.327,VALID,0,VALID,73.7403,VALID,0,VALID,27.2915,VALID,297,VALID,3.53477,
2011-04-03, 01:37:04,VALID,998.341,VALID,0,VALID,73.8776,VALID,0,VALID,27.2915,VALID,268,VALID,2.3875,
2011-04-03, 01:38:04,VALID,998.371,VALID,0,VALID,74.0989,VALID,0,VALID,27.2524,VALID,291,VALID,1.70625,
2011-04-03, 01:39:04,VALID,998.309,VALID,0,VALID,73.7098,VALID,0,VALID,27.2329,VALID,298,VALID,3.55117,
2011-04-03, 01:40:04,VALID,998.328,VALID,0,VALID,73.6182,VALID,0,VALID,27.2308,VALID,300,VALID,1.21836,
2011-04-03, 01:41:04,VALID,998.355,VALID,0,VALID,73.4122,VALID,0,VALID,27.2719,VALID,289,VALID,2.82031,
2011-04-03, 01:42:04,VALID,998.337,VALID,0,VALID,73.5877,VALID,0,VALID,27.2719,VALID,195,VALID,0.565625,
2011-04-03, 01:43:04,VALID,998.333,VALID,0,VALID,74.0149,VALID,0,VALID,27.2329,VALID,295,VALID,0.832812,
2011-04-03, 01:44:04,VALID,998.282,VALID,0,VALID,74.5414,VALID,0,VALID,27.1743,VALID,288,VALID,0.895703,
2011-04-03, 01:45:04,VALID,998.323,VALID,0,VALID,74.5795,VALID,0,VALID,27.1352,VALID,256,VALID,1.95234,
2011-04-03, 01:46:04,VALID,998.291,VALID,0,VALID,74.694,VALID,0,VALID,27.1352,VALID,306,VALID,1.28633,
2011-04-03, 01:47:04,VALID,998.294,VALID,0,VALID,74.4956,VALID,0,VALID,27.0961,VALID,314,VALID,2.21563,
2011-04-03, 01:48:04,VALID,998.307,VALID,0,VALID,74.9915,VALID,0,VALID,27.0766,VALID,268,VALID,1.63242,
2011-04-03, 01:49:04,VALID,998.297,VALID,0,VALID,74.6101,VALID,0,VALID,27.1157,VALID,293,VALID,1.43008,
2011-04-03, 01:50:04,VALID,998.311,VALID,0,VALID,74.6635,VALID,0,VALID,27.1157,VALID,280,VALID,0.913281,
2011-04-03, 01:51:04,VALID,998.268,VALID,0,VALID,74.6558,VALID,0,VALID,27.0787,VALID,296,VALID,2.10703,
2011-04-03, 01:52:04,VALID,998.313,VALID,0,VALID,74.5872,VALID,0,VALID,27.0766,VALID,260,VALID,1.51016,
2011-04-03, 01:53:04,VALID,998.306,VALID,0,VALID,74.5109,VALID,0,VALID,27.0766,VALID,267,VALID,2.09453,
2011-04-03, 01:54:04,VALID,998.294,VALID,0,VALID,74.1141,VALID,0,VALID,27.1547,VALID,258,VALID,4.00859,
2011-04-03, 01:55:04,VALID,998.291,VALID,0,VALID,74.0226,VALID,0,VALID,27.2133,VALID,263,VALID,1.98555,
2011-04-03, 01:56:04,VALID,998.339,VALID,0,VALID,73.7937,VALID,0,VALID,27.2329,VALID,332,VALID,1.36406,
2011-04-03, 01:57:04,VALID,998.311,VALID,0,VALID,73.3893,VALID,0,VALID,27.2308,VALID,295,VALID,3.43164,
2011-04-03, 01:58:04,VALID,998.254,VALID,0,VALID,73.3741,VALID,0,VALID,27.2719,VALID,246,VALID,3.35586,
2011-04-03, 01:59:04,VALID,998.287,VALID,0,VALID,73.2749,VALID,0,VALID,27.311,VALID,262,VALID,3.9793,
2011-04-03, 02:00:04,VALID,998.333,VALID,0,VALID,73.2672,VALID,0,VALID,27.3305,VALID,289,VALID,2.32656,
2011-04-03, 02:01:04,VALID,998.322,VALID,0,VALID,73.107,VALID,0,VALID,27.35,VALID,318,VALID,1.40352,
2011-04-03, 02:02:04,VALID,998.276,VALID,0,VALID,72.9315,VALID,0,VALID,27.311,VALID,317,VALID,2.95469,
2011-04-03, 02:03:04,VALID,998.256,VALID,0,VALID,72.9315,VALID,0,VALID,27.2915,VALID,269,VALID,2.15273,
2011-04-03, 02:04:04,VALID,998.22,VALID,0,VALID,73.0384,VALID,0,VALID,27.2915,VALID,252,VALID,1.37148,
2011-04-03, 02:05:04,VALID,998.204,VALID,0,VALID,73.3206,VALID,0,VALID,27.2719,VALID,299,VALID,1.85625,
2011-04-03, 02:06:04,VALID,998.242,VALID,0,VALID,73.7021,VALID,0,VALID,27.2329,VALID,296,VALID,1.69883,
2011-04-03, 02:07:04,VALID,998.179,VALID,0,VALID,73.87,VALID,0,VALID,27.1938,VALID,285,VALID,1.92656,
2011-04-03, 02:08:04,VALID,998.175,VALID,0,VALID,73.4427,VALID,0,VALID,27.1917,VALID,15,VALID,1.51641,
2011-04-03, 02:09:04,VALID,998.227,VALID,0,VALID,73.7327,VALID,0,VALID,27.2133,VALID,288,VALID,2.37305,
2011-04-03, 02:10:04,VALID,998.182,VALID,0,VALID,74.0302,VALID,0,VALID,27.2133,VALID,259,VALID,2.46719,
2011-04-03, 02:11:04,VALID,998.237,VALID,0,VALID,73.9463,VALID,0,VALID,27.2524,VALID,281,VALID,2.53711,
2011-04-03, 02:12:04,VALID,998.232,VALID,0,VALID,74.0531,VALID,0,VALID,27.274,VALID,286,VALID,3.41563,
2011-04-03, 02:13:04,VALID,998.227,VALID,0,VALID,74.0989,VALID,0,VALID,27.2503,VALID,280,VALID,2.13711,
2011-04-03, 02:14:04,VALID,998.236,VALID,0,VALID,74.2744,VALID,0,VALID,27.2524,VALID,247,VALID,1.09609,
2011-04-03, 02:15:04,VALID,998.267,VALID,0,VALID,74.5414,VALID,0,VALID,27.2329,VALID,290,VALID,0.909766,
2011-04-03, 02:16:04,VALID,998.253,VALID,0,VALID,74.6482,VALID,0,VALID,27.1743,VALID,306,VALID,0.954297,
2011-04-03, 02:17:04,VALID,998.24,VALID,0,VALID,74.8923,VALID,0,VALID,27.1743,VALID,262,VALID,1.00312,
2011-04-03, 02:18:04,VALID,998.239,VALID,0,VALID,75.167,VALID,0,VALID,27.1352,VALID,332,VALID,0.809766,
2011-04-03, 02:19:04,VALID,998.25,VALID,0,VALID,75.2204,VALID,0,VALID,27.0961,VALID,301,VALID,0.63125,
2011-04-03, 02:20:04,VALID,998.217,VALID,0,VALID,75.0373,VALID,0,VALID,27.055,VALID,301,VALID,1.94766,
2011-04-03, 02:21:04,VALID,998.25,VALID,0,VALID,75.0526,VALID,0,VALID,27.0571,VALID,326,VALID,0.998047,
2011-04-03, 02:22:04,VALID,998.175,VALID,0,VALID,75.1746,VALID,0,VALID,27.0766,VALID,287,VALID,1.35781,
2011-04-03, 02:23:04,VALID,998.209,VALID,0,VALID,75.2357,VALID,0,VALID,27.0766,VALID,291,VALID,1.27227,
2011-04-03, 02:24:04,VALID,998.192,VALID,0,VALID,75.2967,VALID,0,VALID,27.0766,VALID,267,VALID,1.80625,
2011-04-03, 02:25:04,VALID,998.215,VALID,0,VALID,75.4798,VALID,0,VALID,27.0982,VALID,298,VALID,1.55078,
2011-04-03, 02:26:04,VALID,998.186,VALID,0,VALID,75.579,VALID,0,VALID,27.0375,VALID,241,VALID,1.43125,
2011-04-03, 02:27:04,VALID,998.175,VALID,0,VALID,75.6782,VALID,0,VALID,27.0375,VALID,259,VALID,1.60547,
2011-04-03, 02:28:04,VALID,998.19,VALID,0,VALID,75.7469,VALID,0,VALID,27.018,VALID,287,VALID,2.01992,
2011-04-03, 02:29:04,VALID,998.204,VALID,0,VALID,75.785,VALID,0,VALID,27.0375,VALID,277,VALID,1.09687,
2011-04-03, 02:30:04,VALID,998.16,VALID,0,VALID,75.8689,VALID,0,VALID,27.018,VALID,272,VALID,1.28789,
2011-04-03, 02:31:04,VALID,998.178,VALID,0,VALID,75.9529,VALID,0,VALID,27.018,VALID,220,VALID,0.491797,
2011-04-03, 02:32:04,VALID,998.155,VALID,0,VALID,76.3344,VALID,0,VALID,26.9985,VALID,263,VALID,1.41094,
2011-04-03, 02:33:04,VALID,998.155,VALID,0,VALID,76.403,VALID,0,VALID,26.9789,VALID,259,VALID,1.51289,
2011-04-03, 02:34:04,VALID,998.139,VALID,0,VALID,76.1665,VALID,0,VALID,27.018,VALID,306,VALID,1.51406,
2011-04-03, 02:35:04,VALID,998.136,VALID,0,VALID,76.2886,VALID,0,VALID,27.0375,VALID,285,VALID,2.36367,
2011-04-03, 02:36:04,VALID,998.136,VALID,0,VALID,76.1894,VALID,0,VALID,27.0375,VALID,288,VALID,1.67227,
2011-04-03, 02:37:04,VALID,998.132,VALID,0,VALID,76.4259,VALID,0,VALID,26.9985,VALID,239,VALID,0.649219,
2011-04-03, 02:38:04,VALID,998.133,VALID,0,VALID,76.2428,VALID,0,VALID,27.018,VALID,283,VALID,1.39141,
2011-04-03, 02:39:04,VALID,998.196,VALID,0,VALID,76.3344,VALID,0,VALID,27.0396,VALID,263,VALID,1.5957,
2011-04-03, 02:40:04,VALID,998.135,VALID,0,VALID,76.0292,VALID,0,VALID,27.0571,VALID,262,VALID,1.21523,
2011-04-03, 02:41:04,VALID,998.136,VALID,0,VALID,75.9223,VALID,0,VALID,27.0961,VALID,302,VALID,2.13516,
2011-04-03, 02:42:04,VALID,998.15,VALID,0,VALID,75.93,VALID,0,VALID,27.0961,VALID,275,VALID,1.34648,
2011-04-03, 02:43:04,VALID,998.147,VALID,0,VALID,75.9834,VALID,0,VALID,27.0961,VALID,272,VALID,1.65078,
2011-04-03, 02:44:04,VALID,998.177,VALID,0,VALID,76.0063,VALID,0,VALID,27.0766,VALID,304,VALID,0.885547,
2011-04-03, 02:45:04,VALID,998.179,VALID,0,VALID,76.0902,VALID,0,VALID,27.0375,VALID,282,VALID,1.48984,
2011-04-03, 02:46:04,VALID,998.177,VALID,0,VALID,76.0368,VALID,0,VALID,27.0571,VALID,323,VALID,3.27344,
2011-04-03, 02:47:04,VALID,998.222,VALID,0,VALID,75.8155,VALID,0,VALID,27.0766,VALID,301,VALID,1.98516,
2011-04-03, 02:48:04,VALID,998.25,VALID,0,VALID,75.8384,VALID,0,VALID,27.0961,VALID,293,VALID,1.7625,
2011-04-03, 02:49:04,VALID,998.168,VALID,0,VALID,76.0368,VALID,0,VALID,27.0961,VALID,253,VALID,0.984375,
2011-04-03, 02:50:04,VALID,998.241,VALID,0,VALID,76.0902,VALID,0,VALID,27.0961,VALID,270,VALID,0.819922,
2011-04-03, 02:51:04,VALID,998.316,VALID,0,VALID,76.4412,VALID,0,VALID,27.0766,VALID,289,VALID,3.04922,
2011-04-03, 02:52:04,VALID,998.273,VALID,0,VALID,75.9986,VALID,0,VALID,27.1547,VALID,257,VALID,3.78594,
2011-04-03, 02:53:04,VALID,998.329,VALID,0,VALID,76.0444,VALID,0,VALID,27.1938,VALID,283,VALID,1.4332,
2011-04-03, 02:54:04,VALID,998.304,VALID,0,VALID,76.1131,VALID,0,VALID,27.1547,VALID,270,VALID,1.42617,
2011-04-03, 02:55:04,VALID,998.326,VALID,0,VALID,75.4875,VALID,0,VALID,27.1352,VALID,303,VALID,2.26055,
2011-04-03, 02:56:04,VALID,998.319,VALID,0,VALID,75.5409,VALID,0,VALID,27.1547,VALID,263,VALID,2.36484,
2011-04-03, 02:57:04,VALID,998.334,VALID,0,VALID,75.9605,VALID,0,VALID,27.1547,VALID,291,VALID,2.1,
2011-04-03, 02:58:04,VALID,998.363,VALID,0,VALID,75.8461,VALID,0,VALID,27.1547,VALID,247,VALID,1.96211,
2011-04-03, 02:59:04,VALID,998.323,VALID,0,VALID,75.4569,VALID,0,VALID,27.1743,VALID,313,VALID,2.58984,
2011-04-03, 03:00:04,VALID,998.369,VALID,0,VALID,75.6095,VALID,0,VALID,27.1743,VALID,298,VALID,2.2918,
2011-04-03, 03:01:04,VALID,998.316,VALID,0,VALID,76.1894,VALID,0,VALID,27.1547,VALID,244,VALID,2.08359,
2011-04-03, 03:02:04,VALID,998.359,VALID,0,VALID,76.342,VALID,0,VALID,27.1743,VALID,267,VALID,3.39766,
2011-04-03, 03:03:04,VALID,998.3,VALID,0,VALID,75.8689,VALID,0,VALID,27.1938,VALID,264,VALID,1.57109,
2011-04-03, 03:04:04,VALID,998.356,VALID,0,VALID,76.2352,VALID,0,VALID,27.1938,VALID,265,VALID,1.29336,
2011-04-03, 03:05:04,VALID,998.401,VALID,0,VALID,75.6477,VALID,0,VALID,27.1959,VALID,264,VALID,2.4582,
2011-04-03, 03:06:04,VALID,998.405,VALID,0,VALID,75.9071,VALID,0,VALID,27.2329,VALID,288,VALID,3.05664,
2011-04-03, 03:07:04,VALID,998.4,VALID,0,VALID,76.0292,VALID,0,VALID,27.2113,VALID,284,VALID,1.69141,
2011-04-03, 03:08:04,VALID,998.376,VALID,0,VALID,76.342,VALID,0,VALID,27.2133,VALID,286,VALID,1.22734,
2011-04-03, 03:09:04,VALID,998.435,VALID,0,VALID,76.3191,VALID,0,VALID,27.1938,VALID,289,VALID,2.44141,
2011-04-03, 03:10:04,VALID,998.44,VALID,0,VALID,76.3725,VALID,0,VALID,27.1938,VALID,300,VALID,1.46797,
2011-04-03, 03:11:04,VALID,998.491,VALID,0,VALID,76.6777,VALID,0,VALID,27.1547,VALID,257,VALID,0.937109,
2011-04-03, 03:12:04,VALID,998.474,VALID,0,VALID,76.9752,VALID,0,VALID,27.1352,VALID,287,VALID,1.35781,
2011-04-03, 03:13:04,VALID,998.482,VALID,0,VALID,77.1126,VALID,0,VALID,27.1568,VALID,292,VALID,1.21875,
2011-04-03, 03:14:04,VALID,998.486,VALID,0,VALID,77.3186,VALID,0,VALID,27.1157,VALID,298,VALID,1.19805,
2011-04-03, 03:15:04,VALID,998.482,VALID,0,VALID,77.5322,VALID,0,VALID,27.0766,VALID,283,VALID,0.654297,
2011-04-03, 03:16:04,VALID,998.441,VALID,0,VALID,77.6238,VALID,0,VALID,27.0375,VALID,321,VALID,1.16211,
2011-04-03, 03:17:04,VALID,998.496,VALID,0,VALID,77.7229,VALID,0,VALID,27.0375,VALID,264,VALID,1.61758,
2011-04-03, 03:18:04,VALID,998.469,VALID,0,VALID,77.5704,VALID,0,VALID,27.0571,VALID,290,VALID,1.33086,
2011-04-03, 03:19:04,VALID,998.493,VALID,0,VALID,77.6543,VALID,0,VALID,27.0766,VALID,284,VALID,0.901953,
2011-04-03, 03:20:04,VALID,998.473,VALID,0,VALID,77.9137,VALID,0,VALID,27.0375,VALID,251,VALID,2.23008,
2011-04-03, 03:21:04,VALID,998.451,VALID,0,VALID,77.8526,VALID,0,VALID,27.0787,VALID,257,VALID,0.853125,
2011-04-03, 03:22:04,VALID,998.458,VALID,0,VALID,77.9289,VALID,0,VALID,27.0571,VALID,267,VALID,0.789453,
2011-04-03, 03:23:04,VALID,998.45,VALID,0,VALID,77.4101,VALID,0,VALID,27.0745,VALID,250,VALID,3.09883,
2011-04-03, 03:24:04,VALID,998.424,VALID,0,VALID,77.021,VALID,0,VALID,27.1157,VALID,275,VALID,2.7082,
2011-04-03, 03:25:04,VALID,998.46,VALID,0,VALID,77.0744,VALID,0,VALID,27.0961,VALID,291,VALID,2.05234,
2011-04-03, 03:26:04,VALID,998.448,VALID,0,VALID,76.7845,VALID,0,VALID,27.1352,VALID,282,VALID,2.41133,
2011-04-03, 03:27:04,VALID,998.426,VALID,0,VALID,76.4793,VALID,0,VALID,27.1743,VALID,243,VALID,3.21563,
2011-04-03, 03:28:04,VALID,998.454,VALID,0,VALID,76.3267,VALID,0,VALID,27.2133,VALID,263,VALID,3.93164,
2011-04-03, 03:29:04,VALID,998.467,VALID,0,VALID,76.3344,VALID,0,VALID,27.2329,VALID,273,VALID,2.42344,
2011-04-03, 03:30:04,VALID,998.456,VALID,0,VALID,76.2733,VALID,0,VALID,27.2133,VALID,297,VALID,1.67227,
2011-04-03, 03:31:04,VALID,998.444,VALID,0,VALID,75.5485,VALID,0,VALID,27.2719,VALID,255,VALID,3.12305,
2011-04-03, 03:32:04,VALID,998.497,VALID,0,VALID,75.5485,VALID,0,VALID,27.3305,VALID,263,VALID,2.05039,
2011-04-03, 03:33:04,VALID,998.474,VALID,0,VALID,75.6629,VALID,0,VALID,27.3305,VALID,290,VALID,1.76445,
2011-04-03, 03:34:04,VALID,998.479,VALID,0,VALID,76.0063,VALID,0,VALID,27.2719,VALID,285,VALID,1.73867,
2011-04-03, 03:35:04,VALID,998.481,VALID,0,VALID,75.8995,VALID,0,VALID,27.2524,VALID,265,VALID,2.0082,
2011-04-03, 03:36:04,VALID,998.486,VALID,0,VALID,76.1665,VALID,0,VALID,27.2524,VALID,287,VALID,2.33242,
2011-04-03, 03:37:04,VALID,998.51,VALID,0,VALID,76.3191,VALID,0,VALID,27.1938,VALID,273,VALID,1.32969,
2011-04-03, 03:38:04,VALID,998.521,VALID,0,VALID,76.5327,VALID,0,VALID,27.1938,VALID,229,VALID,2.77617,
2011-04-03, 03:39:04,VALID,998.501,VALID,0,VALID,76.2962,VALID,0,VALID,27.2113,VALID,252,VALID,2.65898,
2011-04-03, 03:40:04,VALID,998.559,VALID,0,VALID,76.2657,VALID,0,VALID,27.2329,VALID,276,VALID,1.79375,
2011-04-03, 03:41:04,VALID,998.549,VALID,0,VALID,76.5556,VALID,0,VALID,27.2329,VALID,299,VALID,1.12148,
2011-04-03, 03:42:04,VALID,998.553,VALID,0,VALID,76.9371,VALID,0,VALID,27.1938,VALID,299,VALID,2.87617,
2011-04-03, 03:43:04,VALID,998.513,VALID,0,VALID,77.3033,VALID,0,VALID,27.1547,VALID,218,VALID,2.03984,
2011-04-03, 03:44:04,VALID,998.564,VALID,0,VALID,77.4788,VALID,0,VALID,27.1136,VALID,327,VALID,2.7668,
2011-04-03, 03:45:04,VALID,998.605,VALID,0,VALID,77.7535,VALID,0,VALID,27.1136,VALID,277,VALID,1.68164,
2011-04-03, 03:46:04,VALID,998.585,VALID,0,VALID,77.8145,VALID,0,VALID,27.1136,VALID,261,VALID,0.916797,